Spokane Felts, WA

4:15 AM PST on December 13, 2017 (GMT -0800)
Felts

Weather History for KSFF - August, 2013

Change the Weather History Date:

Tuesday, August 13, 2013

  Actual Average Record
Temperature  
Mean Temperature 76 °F 70 °F  
Max Temperature 91 °F 85 °F 103 °F (2015)
Min Temperature 61 °F 55 °F 46 °F (2005)
Degree Days  
Heating Degree Days 0 0  
Month to date heating degree days 5 0  
Since 1 June heating degree days 110 139  
Since 1 July heating degree days 5 21  
Cooling Degree Days 11 6  
Month to date cooling degree days 110 84  
Year to date cooling degree days 475 302  
Since 1 June cooling degree days 449 295  
Growing Degree Days 26 (Base 50)    
Moisture  
Dew Point 50 °F    
Average Humidity 44    
Maximum Humidity 68    
Minimum Humidity 19    
Precipitation  
Precipitation T in 0.03 in 0.04 in (2001)
Month to date precipitation 1.46 0.24  
Year to date precipitation 9.42 10.28  
Sea Level Pressure  
Sea Level Pressure 29.98 in    
Wind  
Wind Speed 2 mph (NE)    
Max Wind Speed 8 mph    
Max Gust Speed 13 mph    
Visibility 10 miles    
Events      
T = Trace of Precipitation, MM = Missing Value Source: NWS Daily Summary

Daily Weather History Graph

Daily Weather History Graph

Search for Another Location

Airport or City:

Trip Planner

Search our weather history database for the weather conditions in past years. The results will help you decide how hot, cold, wet, or windy it might be!

Date:

Astronomy

Aug. 13, 2013 Rise Set
Actual Time 5:42 AM PDT 8:04 PM PDT
Civil Twilight 5:08 AM PDT 8:38 PM PDT
Nautical Twilight 4:25 AM PDT 9:21 PM PDT
Astronomical Twilight 3:36 AM PDT 10:09 PM PDT
Moon 1:17 PM PDT 11:07 PM PDT
Length of Visible Light 15h 30m
Length of Day
14h 21m
Waxing Crescent, 43% of the Moon is Illuminated
Aug 13
Waxing Crescent
Aug 14
First Quarter
Aug 20
Full
Aug 28
Last Quarter
Sep 5
New

Hourly Weather History & Observations

Time (PDT) Temp. Dew Point Humidity Pressure Visibility Wind Dir Wind Speed Gust Speed Precip Events Conditions
12:53 AM 70.0 °F 48.0 °F 46% 29.94 in 10.0 mi Calm Calm - N/A   Clear
1:53 AM 64.0 °F 52.0 °F 65% 29.95 in 10.0 mi NE 3.5 mph - N/A   Clear
2:53 AM 62.1 °F 52.0 °F 70% 29.96 in 10.0 mi ENE 4.6 mph - N/A   Clear
3:53 AM 63.0 °F 51.1 °F 65% 29.97 in 10.0 mi Calm Calm - N/A   Clear
4:53 AM 62.1 °F 51.1 °F 67% 29.97 in 10.0 mi NE 3.5 mph - N/A   Clear
5:53 AM 62.1 °F 51.1 °F 67% 29.99 in 10.0 mi Calm Calm - N/A   Clear
6:53 AM 64.0 °F 53.1 °F 67% 30.01 in 10.0 mi NE 3.5 mph - N/A   Clear
7:53 AM 66.9 °F 55.0 °F 66% 30.02 in 10.0 mi Calm Calm - 0.00 in   Scattered Clouds
8:53 AM 70.0 °F 55.9 °F 61% 30.04 in 10.0 mi Calm Calm - N/A   Partly Cloudy
9:53 AM 75.0 °F 55.9 °F 51% 30.04 in 10.0 mi Variable 3.5 mph - N/A   Clear
10:53 AM 79.0 °F 53.1 °F 40% 30.04 in 10.0 mi Calm Calm - N/A   Scattered Clouds
11:53 AM 82.0 °F 51.1 °F 34% 30.03 in 10.0 mi Calm Calm - N/A   Partly Cloudy
12:53 PM 82.9 °F 50.0 °F 32% 30.01 in 10.0 mi Calm Calm - N/A   Partly Cloudy
1:53 PM 86.0 °F 46.0 °F 25% 30.01 in 10.0 mi Calm Calm - N/A   Clear
2:53 PM 88.0 °F 45.0 °F 22% 29.99 in 10.0 mi Variable 3.5 mph - N/A   Partly Cloudy
3:53 PM 89.1 °F 43.0 °F 20% 29.96 in 10.0 mi Calm Calm - N/A   Clear
4:53 PM 89.1 °F 43.0 °F 20% 29.95 in 10.0 mi SE 6.9 mph - N/A   Clear
5:53 PM 90.0 °F 42.1 °F 19% 29.94 in 10.0 mi Calm Calm - N/A   Clear
6:53 PM 87.1 °F 46.0 °F 24% 29.92 in 10.0 mi ENE 5.8 mph - N/A   Clear
7:53 PM 79.0 °F 48.9 °F 35% 29.93 in 10.0 mi NNE 3.5 mph - N/A   Clear
8:53 PM 75.0 °F 50.0 °F 41% 29.94 in 10.0 mi Calm Calm - N/A   Clear
9:53 PM 70.0 °F 48.9 °F 47% 29.94 in 10.0 mi NE 3.5 mph - N/A   Clear
10:53 PM 68.0 °F 50.0 °F 52% 29.94 in 10.0 mi NE 3.5 mph - N/A   Clear
11:53 PM 66.0 °F 52.0 °F 60% 29.94 in 10.0 mi NE 3.5 mph - N/A   Clear